Wind_Speed
27 27 27 26 23 21 21 20 18 15 12 12 14 15 16 17 17 18 15 10 8 7 8 8 6 5 5 6 8 8 8 9 9 9 9 10 10 10 12 13 16 20 24 25 23 21 21 22 22 22 24 24 22 20 20 20 19 17 17 16 15 13 14 16 17 18 18 17 16 15 15 15 14 14 14 15 16 17 20 22 24 27 29 30 31
28 27 26 24 21 21 22 21 18 16 14 14 15 17 17 18 18 18 19 14 9 8 8 8 6 5 5 6 7 6 7 8 8 9 9 9 9 8 9 11 13 15 18 22 24 24 24 23 22 21 23 25 23 21 20 20 19 19 19 18 18 17 18 20 20 20 20 19 18 18 18 18 16 16 16 15 16 17 18 19 21 22 24 27 29
29 27 25 24 23 23 24 21 19 17 16 16 17 18 18 18 18 17 20 18 11 9 9 9 7 5 5 5 4 4 5 6 6 7 8 8 8 8 8 9 9 11 13 15 19 22 25 26 26 25 25 25 24 22 22 21 21 21 21 20 20 20 21 23 22 21 21 22 21 21 22 22 21 20 18 16 16 17 16 17 18 19 21 24 26
29 28 26 24 23 24 24 22 21 19 18 18 19 20 19 17 17 18 21 19 12 10 10 10 9 6 4 2 2 2 2 3 4 4 5 5 6 7 7 8 8 9 10 12 14 17 20 24 26 28 29 29 28 27 26 26 26 26 25 25 24 24 25 25 23 22 23 25 24 24 25 26 26 24 21 19 18 19 18 18 19 19 20 21 23
27 26 25 23 23 23 23 22 22 21 20 20 21 21 19 18 18 19 21 18 12 10 11 11 9 6 4 3 3 2 1 1 1 2 2 2 3 4 4 5 6 7 9 10 12 14 16 19 22 25 27 28 29 29 29 29 30 30 29 28 28 28 27 26 24 24 26 27 26 25 27 29 28 26 25 24 23 22 20 19 20 19 19 19 20
24 24 24 23 22 22 24 25 25 24 23 22 21 20 20 18 18 20 21 17 13 12 12 11 9 7 5 4 4 2 1 1 1 1 2 2 1 1 2 2 3 4 6 8 10 12 14 16 18 20 22 24 26 27 28 28 28 29 30 29 29 29 28 27 27 26 27 28 28 27 28 29 28 27 28 28 26 24 22 20 20 20 20 21 21
25 25 24 22 21 23 26 28 28 27 25 24 22 21 20 19 18 20 21 17 14 13 12 11 10 8 6 5 4 3 2 1 2 3 3 3 3 2 1 1 2 3 4 5 7 9 12 14 16 17 19 20 22 23 24 25 26 27 28 28 29 29 29 29 29 29 28 29 30 29 29 30 29 27 27 28 27 26 24 22 21 21 22 23 23
27 25 22 22 23 24 25 27 28 27 26 25 23 22 21 20 19 21 21 17 14 14 13 11 10 10 8 7 6 4 4 5 6 6 6 5 5 5 5 4 4 4 4 5 6 7 9 11 13 14 16 18 19 21 22 23 25 26 27 28 28 28 29 29 30 31 31 31 32 31 30 32 33 31 30 31 31 30 28 25 24 23 23 23 23
27 24 22 22 22 22 22 22 24 25 25 25 23 21 20 21 22 23 21 17 15 15 14 12 11 11 11 10 9 7 8 8 9 8 7 7 7 8 8 8 7 7 7 7 7 7 8 9 10 11 13 14 16 17 19 20 22 24 26 28 29 29 29 30 31 32 32 33 33 33 32 33 35 35 33 33 33 32 31 28 26 26 25 25 24
25 21 21 21 21 20 19 19 20 21 23 24 23 22 21 23 25 25 22 17 16 16 15 13 11 12 12 12 11 10 10 11 11 10 10 10 9 10 10 11 10 9 9 9 8 8 9 9 10 11 12 12 13 14 15 16 18 20 22 25 27 29 30 31 32 32 33 33 34 35 36 36 37 37 36 34 33 32 32 30 28 29 29 27 27
23 20 19 20 21 21 20 19 18 19 21 22 24 23 23 26 26 25 22 18 16 16 16 15 12 12 13 14 13 12 13 14 13 13 13 13 12 12 12 12 12 11 10 11 11 11 10 10 10 11 11 12 13 13 14 14 15 16 18 20 23 25 28 29 31 33 33 34 34 35 36 36 37 38 37 36 35 34 33 32 30 31 32 32 31
20 20 19 18 19 22 22 22 20 19 20 21 23 24 25 26 25 23 21 17 16 16 16 16 14 13 13 15 15 15 17 17 16 15 15 14 14 13 13 12 12 12 11 12 12 12 13 12 12 12 12 12 12 13 14 14 14 15 16 18 19 21 23 25 27 30 32 33 35 35 35 34 34 33 33 34 35 35 35 35 32 31 34 35 34
19 17 17 17 17 17 18 20 21 21 21 20 20 22 22 20 18 17 17 16 15 15 15 16 15 14 14 15 17 19 19 18 17 16 15 14 14 14 14 13 12 12 12 12 13 13 14 14 14 14 14 14 14 14 14 14 15 15 16 17 18 19 20 21 23 25 27 29 32 34 34 34 33 31 30 30 31 32 34 36 35 33 35 37 37
19 15 14 15 14 14 14 17 18 19 19 18 17 17 16 14 12 12 13 13 14 15 15 15 15 15 15 16 18 19 19 18 17 16 15 15 15 14 14 14 13 12 12 12 13 14 16 16 17 17 16 16 16 16 15 15 15 16 16 17 17 18 18 19 20 21 23 24 27 29 31 32 32 31 31 31 31 30 31 32 33 35 37 39 39
18 15 13 12 11 11 12 14 15 16 17 17 16 16 15 14 12 11 12 13 14 14 15 15 14 14 15 16 18 19 19 18 17 16 15 15 15 15 15 15 14 13 12 12 13 14 15 16 17 18 18 18 17 17 17 17 16 17 17 17 17 18 18 18 18 19 20 21 23 24 26 28 29 30 31 33 33 32 31 30 32 35 37 38 40
17 16 14 11 10 11 11 12 14 14 15 15 15 16 17 15 15 14 13 14 15 16 16 15 13 14 15 17 18 18 17 17 17 16 16 16 16 16 16 16 15 14 13 13 13 13 13 14 15 16 18 18 19 19 19 18 18 18 19 19 19 19 19 19 19 19 19 20 21 22 23 24 26 29 30 32 32 33 33 33 34 35 36 37 38
16 15 13 11 11 13 15 15 15 15 15 15 15 16 16 16 16 16 15 15 17 17 16 15 14 14 15 17 16 16 16 16 16 17 17 17 17 17 17 17 16 16 15 14 14 14 14 14 14 15 17 18 19 19 19 19 19 19 20 21 21 21 20 20 21 21 21 21 22 22 23 23 24 27 29 30 31 33 34 35 36 36 36 38 39
17 16 17 16 16 16 15 14 16 17 17 17 18 18 17 17 17 18 18 18 18 16 16 15 15 15 15 15 15 14 14 15 15 16 16 17 18 18 18 18 18 17 17 17 16 16 16 16 16 16 17 18 18 19 19 19 19 20 20 21 22 22 22 22 23 23 24 24 24 24 25 24 25 27 28 29 30 33 35 36 37 38 39 39 39
11 11 13 16 19 20 19 17 16 17 19 21 20 20 19 19 19 20 20 21 19 17 17 16 17 17 16 14 14 13 13 14 15 16 16 17 18 19 19 19 19 19 19 19 19 19 19 19 19 19 19 19 19 19 19 19 20 20 21 22 22 23 23 23 24 25 25 26 26 26 26 27 27 28 28 29 31 32 35 36 36 37 40 42 39
6 6 5 7 11 16 20 19 17 18 20 21 21 21 21 21 22 23 22 23 22 21 20 18 17 18 17 16 15 14 13 14 15 16 17 18 18 19 19 19 19 19 19 19 20 20 21 21 21 21 21 20 20 20 20 20 20 21 22 23 24 25 25 25 25 26 27 28 28 28 28 28 29 30 30 31 32 32 34 35 35 35 37 39 40
9 6 5 6 7 9 12 16 19 21 21 21 21 22 22 23 24 26 26 24 24 24 22 19 18 18 18 17 16 15 14 15 16 17 18 18 19 20 20 19 19 19 19 19 20 21 21 22 22 22 22 22 22 22 22 22 22 22 23 25 26 27 28 28 28 29 29 29 30 29 29 30 31 31 32 32 33 33 34 35 35 34 33 33 35
19 17 14 12 9 5 5 10 16 22 24 26 25 24 25 26 26 26 28 27 26 25 23 21 20 19 19 19 18 17 16 17 18 18 19 19 21 22 21 20 19 20 20 20 21 21 22 22 22 23 23 23 23 23 23 23 23 24 25 25 27 28 29 31 32 32 32 33 32 31 31 31 32 33 32 32 33 34 35 36 35 35 34 30 29
17 18 15 12 9 7 7 7 10 15 20 25 29 27 27 30 30 27 28 29 28 28 26 23 21 20 20 20 20 19 19 19 19 20 20 21 22 23 22 21 20 20 21 21 22 22 22 23 23 24 24 24 24 24 24 24 24 25 25 26 27 28 29 31 33 34 35 36 36 35 33 33 34 34 34 33 33 33 35 36 36 36 36 32 30
19 18 16 15 13 12 14 13 11 13 15 19 27 31 31 31 33 33 33 31 29 28 28 26 23 22 22 22 22 21 21 20 21 22 22 22 23 24 23 22 22 22 22 22 23 23 23 24 24 25 25 25 25 25 26 26 27 27 28 28 29 30 30 31 32 34 36 37 38 37 36 35 35 36 35 34 34 34 34 35 36 36 37 36 34
25 25 23 24 24 23 23 22 19 19 19 18 21 26 30 30 31 34 38 37 33 31 30 28 26 25 25 24 25 23 22 21 22 23 23 24 24 25 24 24 23 23 23 24 24 24 25 25 25 26 26 26 26 27 28 29 29 30 30 31 31 32 32 32 33 34 35 37 38 38 38 38 38 37 36 35 35 35 34 35 35 35 36 37 37
25 25 25 27 28 27 27 26 23 21 21 21 19 20 25 29 30 33 36 38 40 40 37 32 28 28 27 26 27 25 22 22 23 24 25 25 25 25 25 25 25 24 25 25 25 26 26 26 26 26 26 27 28 29 30 31 32 33 33 34 34 35 34 34 34 34 35 36 38 39 39 39 40 39 38 37 36 37 36 35 34 34 34 36 39
31 31 30 30 30 31 32 31 29 25 24 24 22 20 22 27 31 32 33 34 36 39 42 40 34 31 30 28 28 26 24 23 24 25 26 26 26 27 27 26 26 26 26 27 27 27 27 27 27 27 27 28 29 31 32 33 34 35 37 38 38 38 38 37 36 36 36 37 38 39 39 40 40 41 41 39 38 38 38 37 35 34 34 35 37
36 36 35 34 32 33 34 35 34 34 33 32 30 26 23 25 29 32 33 34 35 35 37 40 39 35 32 30 29 28 26 26 26 26 27 27 28 28 29 28 28 28 28 29 29 29 29 28 28 28 29 30 31 32 34 35 36 38 40 41 41 41 40 39 38 37 37 37 38 39 40 40 41 42 42 41 40 39 39 39 37 36 35 34 35
38 38 37 36 34 32 32 32 32 32 34 37 39 37 32 28 27 30 33 37 39 39 37 38 40 40 36 31 30 30 28 28 28 27 27 28 29 30 30 30 30 30 30 30 30 30 30 30 29 30 30 31 32 34 35 37 39 41 42 42 42 41 40 40 39 38 37 37 38 39 40 41 41 42 43 42 42 41 40 40 39 38 37 36 35
39 38 37 36 34 32 30 29 28 28 29 31 34 38 40 38 34 34 36 37 38 39 37 35 36 40 40 35 30 30 29 28 28 27 27 28 29 31 32 32 32 32 32 32 32 32 32 31 31 31 32 33 35 36 37 39 41 42 42 42 42 42 41 40 40 39 38 38 38 39 40 41 41 42 43 43 42 42 42 42 41 40 40 39 38
37 36 35 34 33 32 31 30 30 30 29 28 27 28 34 40 41 41 42 40 35 33 33 31 31 37 41 39 36 32 28 27 26 25 26 28 30 31 32 33 33 33 33 33 32 33 33 33 34 34 34 36 37 38 40 41 41 42 42 43 43 43 42 42 41 40 40 39 39 39 39 40 41 41 42 43 43 43 43 43 42 41 41 41 41
35 34 34 32 31 32 32 33 34 34 33 32 30 26 25 30 35 37 40 41 36 32 34 35 34 36 38 38 39 35 28 24 23 25 27 30 31 32 33 33 33 34 33 33 33 34 35 36 36 37 37 38 40 41 42 42 42 42 43 43 44 44 43 43 42 42 41 41 40 40 40 40 41 41 42 43 44 44 43 43 44 43 42 42 43
38 37 36 33 31 31 31 33 35 36 36 35 36 34 29 26 28 30 32 34 33 33 36 37 36 36 37 37 37 34 27 23 23 26 30 31 32 32 33 33 34 33 32 33 34 35 36 37 38 39 40 41 42 42 42 43 43 43 43 44 44 44 44 44 43 42 42 42 42 42 42 41 42 42 43 43 44 45 45 45 45 45 45 44 44
39 39 38 37 35 34 34 34 34 36 37 37 38 40 37 33 31 31 32 33 33 34 37 38 38 38 38 38 37 34 29 26 25 28 31 32 32 33 33 34 33 33 33 33 34 35 36 38 39 40 41 42 42 42 42 43 43 43 43 44 44 45 45 44 44 43 42 42 42 43 43 43 43 44 44 45 46 46 46 46 47 47 47 46 45
38 38 38 38 37 37 37 37 36 36 36 37 38 40 42 42 40 39 39 39 38 38 41 41 39 38 38 40 41 38 33 29 27 27 30 31 32 33 34 34 34 33 33 34 34 35 36 38 39 41 42 42 41 41 41 42 42 43 43 44 45 46 46 45 44 43 43 43 43 43 44 45 45 45 46 47 48 48 49 48 48 48 48 48 47
37 36 36 36 36 37 36 36 37 36 35 35 35 37 41 45 46 46 44 42 41 42 43 42 39 40 40 41 41 38 31 27 26 26 28 30 32 33 34 33 32 32 32 33 34 35 36 38 39 40 40 41 41 41 41 42 42 43 44 45 46 47 47 46 45 44 44 44 44 44 45 45 46 47 48 49 50 51 51 51 50 50 49 49 49
36 36 35 34 34 35 35 35 36 36 35 34 33 33 35 40 45 46 43 40 39 39 38 36 35 36 35 34 35 31 24 22 24 25 27 29 31 32 31 29 29 30 32 34 34 35 36 36 38 38 40 40 40 40 40 41 41 42 44 46 47 47 48 48 47 46 46 46 46 46 46 47 47 47 48 49 50 52 54 54 54 53 52 51 50
36 36 35 34 33 33 34 35 36 36 36 35 34 33 33 34 38 43 43 39 36 36 37 36 34 32 32 33 33 27 20 20 23 25 26 28 28 28 27 27 28 31 33 33 34 34 35 36 37 38 40 40 40 39 39 39 40 42 43 45 47 48 49 49 49 49 48 48 49 49 49 50 50 50 50 50 51 53 55 56 57 57 56 55 52
36 36 37 37 36 36 36 34 35 36 37 36 35 35 34 34 35 39 41 40 37 35 36 36 32 31 35 36 31 24 20 21 24 25 25 25 25 25 25 27 28 30 32 33 34 34 35 36 37 38 38 39 38 38 38 39 40 41 43 45 47 49 50 51 51 51 51 51 52 52 52 53 53 52 52 52 52 54 56 58 59 60 60 58 56
36 37 39 39 39 40 39 36 34 34 35 36 36 35 35 35 36 37 39 40 38 35 34 35 33 33 33 30 23 19 19 22 24 25 24 25 25 25 25 25 27 29 32 33 34 34 34 34 35 35 35 35 36 37 37 39 40 42 43 45 47 50 51 52 52 53 54 54 54 55 55 55 55 55 55 54 54 55 57 59 60 62 63 61 59
36 37 39 39 38 38 38 36 34 34 35 36 35 35 35 35 36 39 41 39 36 34 34 34 34 33 33 27 20 18 18 20 22 23 23 23 23 23 23 26 28 30 31 32 32 33 33 33 32 32 33 33 34 36 37 39 41 43 44 46 48 50 51 52 53 54 54 55 56 56 57 56 56 56 54 52 52 53 55 58 61 63 64 63 62
32 34 36 37 37 37 37 35 35 36 36 36 35 35 35 35 37 40 40 37 36 36 34 32 32 33 30 25 20 18 18 19 19 19 20 21 22 22 24 26 27 28 28 29 30 31 32 31 31 31 32 32 33 35 37 39 41 43 45 46 48 49 50 52 53 54 55 56 56 56 55 54 51 49 47 46 46 48 51 55 59 61 63 64 64
35 35 34 35 37 38 37 36 37 38 38 38 37 36 36 35 37 39 38 37 38 37 34 34 36 33 26 21 18 18 19 19 18 18 20 21 22 24 24 24 24 24 25 26 28 30 30 31 32 32 33 34 34 36 38 40 42 43 44 46 47 48 49 51 53 55 56 55 54 53 51 48 45 43 43 42 43 44 47 51 55 57 60 61 63
37 37 35 35 36 38 38 37 37 38 38 38 38 37 37 36 35 35 37 39 42 41 36 34 35 31 23 18 17 18 18 18 18 19 19 21 23 22 20 19 20 22 23 25 27 29 31 32 33 34 35 36 36 38 39 41 42 43 43 44 45 47 48 50 53 54 54 52 50 48 45 43 42 40 39 38 39 41 44 47 50 52 55 58 60
36 35 35 34 35 37 37 37 36 37 38 38 37 37 36 34 32 32 36 41 45 43 38 35 32 26 19 17 17 18 18 18 18 19 19 21 20 16 15 16 18 21 23 25 28 30 32 33 35 36 38 38 38 39 40 41 42 42 43 43 44 45 47 48 50 50 48 46 45 43 42 41 39 36 34 34 36 37 39 41 44 47 50 54 57
34 34 33 33 34 35 35 35 34 34 32 31 31 32 31 30 30 32 36 41 41 39 38 34 25 19 17 17 18 18 16 15 17 18 19 17 14 13 14 17 19 22 25 28 30 31 33 34 36 38 40 40 40 40 41 41 42 42 43 43 44 45 45 45 44 43 41 41 41 42 41 39 36 33 32 34 34 35 35 37 39 42 45 48 51
33 32 31 31 31 31 31 31 30 28 28 27 27 27 27 29 29 29 34 37 35 34 33 26 19 17 18 18 17 16 14 15 18 17 15 12 12 14 16 18 22 25 28 30 31 32 33 35 37 39 40 41 40 41 41 42 42 43 44 44 45 45 44 42 39 37 36 37 38 38 37 35 33 31 30 31 31 31 32 34 36 37 40 42 44
32 30 28 27 26 22 18 15 13 15 18 21 22 20 20 24 27 30 33 33 30 28 26 23 20 20 20 17 15 14 16 17 16 13 11 12 14 16 18 20 24 27 30 31 31 31 33 36 38 39 41 41 41 41 41 42 43 44 44 45 45 45 42 38 35 32 31 31 31 31 30 29 28 27 27 27 28 29 30 31 32 34 35 37 39
28 24 22 19 14 10 10 11 10 11 15 20 23 22 22 23 25 25 26 26 25 23 23 24 24 21 19 17 16 16 16 14 11 11 12 14 16 18 19 21 25 28 30 29 30 31 34 36 37 38 40 41 41 41 41 42 43 44 45 45 44 42 39 35 32 28 26 24 24 25 25 24 24 24 26 27 28 29 31 31 32 34 35 36 39
20 18 16 12 11 12 15 14 11 13 17 21 23 24 23 21 21 20 21 22 20 20 21 22 20 18 17 17 18 17 13 10 10 12 14 16 19 20 21 23 27 29 29 29 30 32 33 35 35 36 37 39 41 41 42 42 44 44 44 43 40 37 34 32 28 24 22 21 21 21 21 21 21 23 25 26 27 29 30 31 31 32 34 36 38
14 14 14 13 10 10 13 14 12 12 16 18 21 24 24 22 22 22 20 20 19 19 19 17 16 18 19 18 16 12 9 9 11 13 16 19 20 21 23 25 28 29 29 29 30 31 32 33 33 34 35 37 39 41 43 44 44 44 43 40 36 33 31 29 25 21 20 20 21 20 19 19 20 22 22 22 22 23 25 26 27 29 32 34 36
Wind_Direction
259 260 263 269 276 283 285 284 287 293 298 309 314 310 312 317 325 330 323 303 291 294 290 285 281 271 257 237 238 247 253 259 260 257 254 249 245 238 233 232 229 228 228 230 232 234 238 241 239 240 245 247 248 244 242 243 244 246 246 244 243 237 235 242 250 252 246 245 251 253 254 253 253 255 252 249 246 245 248 248 247 248 250 251 251
253 256 260 265 271 279 281 282 286 290 293 304 307 303 307 312 314 322 328 318 294 290 288 280 277 254 232 218 221 234 238 245 254 257 258 255 250 244 238 234 232 232 231 230 232 234 238 241 239 239 243 245 247 244 240 242 246 248 249 248 247 244 243 245 249 251 247 247 250 251 253 254 255 259 257 254 253 250 252 255 256 254 253 253 252
250 251 255 261 269 277 279 279 284 287 291 298 301 301 303 306 306 312 325 321 297 290 296 289 287 266 238 226 222 234 233 232 240 247 256 258 254 247 242 240 237 235 236 234 234 235 238 240 242 242 243 243 243 243 242 245 248 250 253 254 252 249 244 241 242 246 245 245 248 251 255 257 259 261 259 255 254 254 258 265 270 268 263 260 257
250 250 255 263 270 275 276 277 283 284 287 292 296 301 300 297 298 307 322 321 298 292 299 293 291 281 266 266 264 262 240 231 236 242 254 259 260 256 248 242 237 235 236 236 234 235 236 238 241 242 243 244 244 245 246 249 252 254 256 257 257 256 251 244 239 240 242 240 243 251 252 254 261 265 260 255 254 256 261 268 273 274 272 270 268
252 254 257 262 268 272 275 276 278 277 283 291 295 298 293 289 294 305 321 319 297 293 295 289 291 291 294 312 325 330 294 248 255 258 257 241 236 246 249 244 238 234 233 235 235 235 235 235 238 240 241 243 244 245 246 248 251 253 254 255 255 255 256 255 250 247 246 241 241 248 249 253 262 264 260 257 256 258 263 266 267 269 271 274 276
252 258 258 260 267 270 271 272 272 274 282 290 294 294 286 284 292 305 319 315 294 292 290 286 292 294 298 308 313 312 301 338 358 290 268 241 208 206 226 230 233 235 230 230 235 237 237 236 237 239 240 242 243 244 245 245 247 249 250 251 251 251 251 252 252 251 250 248 246 248 250 253 256 258 261 262 259 258 261 262 261 263 267 272 276
250 257 254 254 261 265 266 268 270 274 281 285 289 288 282 282 291 305 313 306 291 289 283 280 286 284 284 286 277 270 272 257 262 283 287 290 306 311 299 280 262 259 245 235 235 238 240 241 240 241 241 242 243 244 245 245 245 245 245 246 247 248 247 246 247 246 245 246 247 249 252 252 250 251 257 260 260 261 260 258 257 259 263 266 269
250 256 257 255 256 261 267 270 270 273 277 279 282 284 282 283 290 301 305 296 287 286 278 272 273 270 267 263 251 239 237 240 252 269 284 293 303 305 302 298 287 279 267 255 248 243 243 244 246 246 245 245 245 245 246 246 246 246 245 243 241 241 243 243 245 246 244 243 244 247 250 250 250 251 252 254 259 260 259 257 257 257 258 260 262
250 256 263 262 261 266 273 274 273 273 274 275 278 280 280 281 287 296 299 290 284 285 276 266 263 260 257 255 252 248 246 253 264 271 278 283 288 292 290 286 282 278 269 259 255 252 249 247 247 249 250 249 248 248 247 246 246 246 246 245 243 239 238 238 240 243 244 244 244 243 244 245 248 251 252 254 258 260 261 260 259 258 256 255 256
249 256 264 265 268 271 273 274 276 277 274 274 277 276 275 279 284 292 295 285 279 282 274 263 259 258 257 257 256 258 262 269 276 279 282 282 281 281 277 276 277 277 274 268 263 258 253 251 249 249 250 252 253 252 250 249 247 247 247 247 247 246 243 241 240 241 243 244 245 245 245 245 248 250 251 253 256 259 261 261 259 260 260 256 252
245 250 256 260 263 263 262 266 272 276 274 276 277 273 274 279 283 290 291 279 271 275 271 262 260 261 260 260 262 266 272 278 284 287 288 288 285 280 274 271 272 273 275 274 272 268 262 257 254 252 252 253 256 256 256 255 252 252 253 252 252 251 249 247 246 245 244 244 245 246 248 250 250 251 252 253 254 256 258 259 258 259 261 258 253
236 240 247 253 254 251 251 254 259 265 271 278 279 274 275 280 284 287 284 274 268 269 266 260 261 264 261 262 265 270 276 281 286 288 289 289 286 282 276 272 269 266 266 268 271 273 271 269 267 265 264 262 260 259 258 258 257 256 257 258 259 257 256 253 251 249 248 247 247 247 248 250 251 253 254 256 256 255 255 256 256 256 256 257 255
228 232 242 247 250 251 252 254 258 265 273 281 284 278 278 281 285 285 277 268 262 258 259 259 260 263 263 263 266 272 278 283 286 286 285 285 284 283 279 275 271 264 260 260 262 265 267 269 270 271 272 271 268 264 260 259 258 257 258 259 261 262 261 259 256 254 251 250 250 250 250 250 250 249 250 254 258 259 256 255 255 255 256 257 258
226 235 247 250 251 253 259 265 268 272 276 281 285 280 276 275 282 292 289 277 264 256 257 259 260 262 261 263 268 275 281 284 286 286 285 285 285 287 286 282 277 269 262 258 256 256 257 259 262 264 267 269 271 270 269 266 263 260 259 259 260 262 263 262 260 258 256 253 252 252 253 253 252 249 246 248 252 255 257 257 257 257 257 257 258
227 243 263 272 273 265 264 267 270 274 275 279 285 285 278 272 273 288 299 296 284 273 267 263 261 262 260 263 269 276 282 285 287 288 290 292 293 293 291 288 284 279 272 264 259 256 255 256 258 259 261 263 264 267 269 271 271 270 267 264 262 262 262 263 262 260 259 258 257 256 256 256 256 254 251 249 249 248 251 255 257 257 257 257 256
238 249 264 276 283 287 284 278 275 277 279 282 287 289 286 280 275 279 291 300 299 294 285 273 262 258 259 262 268 276 282 286 290 293 296 299 300 299 295 293 291 287 281 277 273 270 267 264 262 260 260 260 260 261 262 265 267 270 272 271 269 266 264 263 263 262 261 260 260 260 260 258 258 257 255 253 251 248 246 248 252 256 259 260 259
237 247 259 261 269 285 286 282 280 279 281 286 291 294 292 287 280 276 282 292 299 303 298 282 268 261 262 263 268 277 284 289 292 295 300 303 304 302 299 298 297 295 292 289 287 286 281 276 270 266 264 263 263 263 263 263 263 265 267 268 269 267 265 264 263 263 263 262 262 262 262 261 260 259 258 256 254 250 246 246 247 249 254 258 259
228 241 253 257 269 282 283 280 279 279 282 287 292 295 294 290 280 272 279 289 294 300 299 289 277 270 266 265 269 276 281 287 291 294 298 303 305 304 302 301 299 298 297 295 294 291 288 284 280 276 273 271 271 270 270 270 269 267 266 265 266 265 264 263 263 264 264 264 264 264 264 264 263 262 261 260 258 254 250 248 246 245 247 252 256
203 220 238 251 263 272 277 281 281 282 288 292 293 293 290 289 282 274 279 286 287 289 292 291 287 279 270 263 268 274 277 281 285 289 294 299 303 303 302 301 299 297 296 295 295 293 290 288 286 283 282 280 279 279 279 279 278 277 274 271 270 267 265 264 264 265 265 265 265 265 266 266 265 264 262 261 260 258 256 254 250 246 244 248 252
178 180 201 240 255 264 270 276 279 282 288 290 290 290 290 289 283 277 278 280 281 284 288 289 289 285 274 265 270 276 275 277 281 286 292 296 299 301 301 299 297 295 294 292 291 291 290 289 289 288 288 287 287 286 286 285 284 283 281 279 277 275 273 270 268 267 266 267 267 267 267 267 266 265 263 262 261 260 259 258 256 252 248 247 250
239 238 254 259 259 266 262 261 266 273 278 278 276 279 283 286 285 277 272 274 277 279 282 285 288 287 280 273 276 278 273 274 279 284 289 294 297 298 297 296 294 291 290 289 288 287 288 289 290 291 291 290 290 290 289 289 287 285 284 282 281 279 279 277 275 273 271 269 268 267 267 267 266 265 264 263 262 261 260 259 258 257 253 249 250
241 245 254 258 253 256 258 259 264 267 269 268 267 269 269 274 280 275 267 269 272 274 278 282 281 281 281 277 277 277 273 273 278 282 285 290 294 295 294 292 290 288 287 286 286 286 287 289 290 291 291 291 291 291 291 290 289 289 287 285 283 280 279 278 277 276 275 273 271 269 268 267 267 266 265 264 263 262 262 260 258 256 254 249 247
233 234 240 250 243 228 235 256 272 273 268 262 262 265 265 267 269 266 267 272 272 272 275 276 274 272 272 273 275 275 274 275 278 280 283 288 292 293 292 290 287 285 285 284 285 286 287 287 288 289 289 290 290 290 290 289 290 290 290 289 287 284 280 277 275 274 273 273 273 272 269 267 267 266 266 266 265 263 262 261 259 255 253 249 243
257 252 254 261 263 256 249 252 260 267 269 265 262 261 262 269 268 260 263 272 277 277 272 267 268 266 262 265 269 271 274 277 279 279 282 287 290 291 291 290 288 285 283 283 284 285 285 285 286 286 287 287 287 288 288 289 290 290 290 290 289 287 284 280 276 273 271 271 270 271 270 268 267 267 267 267 267 265 262 261 260 256 253 248 243
270 269 268 264 264 263 259 258 256 253 256 267 276 270 264 271 274 265 259 258 261 269 269 265 265 261 258 261 263 266 272 275 277 278 280 285 288 291 291 290 289 286 283 283 283 283 283 283 283 283 284 284 285 286 288 289 290 291 291 292 291 290 287 284 280 275 272 270 269 268 268 267 267 267 267 267 267 267 265 263 261 258 255 249 244
268 267 266 263 262 262 261 260 258 258 259 260 276 287 276 271 274 274 270 260 253 254 255 256 261 260 257 257 258 261 264 267 270 272 275 281 285 289 291 290 288 286 284 283 282 281 281 280 281 281 282 284 285 287 288 289 291 293 294 295 295 293 291 287 284 279 275 271 269 267 266 265 265 266 266 267 267 267 267 266 263 260 257 252 246
280 277 274 272 269 269 270 268 264 265 269 265 266 275 279 275 273 275 279 275 270 265 254 247 252 258 255 252 253 256 256 256 260 264 268 275 281 284 288 289 288 286 285 283 281 281 280 279 280 281 282 284 285 287 288 290 292 294 296 296 296 294 292 289 286 282 278 274 270 268 266 264 263 264 264 265 265 265 265 266 265 262 259 255 250
292 291 288 285 282 278 277 277 273 267 266 267 264 263 268 274 273 273 277 277 279 280 267 252 250 252 252 248 246 247 248 249 253 259 265 270 275 280 284 287 287 286 283 282 280 279 278 278 279 280 282 284 286 288 290 292 294 296 296 296 296 294 292 289 286 283 280 277 274 271 268 265 264 263 262 263 263 264 264 264 264 264 261 258 254
293 295 295 293 292 289 284 281 278 271 265 263 262 260 258 260 266 270 273 273 273 275 274 267 258 250 246 247 245 241 243 247 253 259 264 268 271 276 281 284 284 283 281 279 279 278 278 278 279 281 283 285 287 288 290 292 294 295 295 295 295 294 293 290 287 284 281 278 276 273 271 268 266 264 263 262 262 263 264 263 263 264 263 260 257
292 293 294 291 289 287 281 275 272 269 266 265 263 259 255 254 260 264 264 267 267 266 268 270 262 249 244 244 242 240 242 249 256 261 262 265 269 273 277 279 279 279 278 277 278 278 279 280 282 283 285 285 286 287 288 290 292 293 294 295 295 294 293 290 288 285 282 279 277 275 273 271 268 266 265 263 263 263 263 263 262 262 263 262 260
293 293 294 289 282 276 271 267 266 264 263 263 264 261 255 254 258 261 261 262 261 259 261 265 262 257 253 248 240 238 243 249 256 261 264 266 268 270 273 275 276 276 276 277 278 280 281 282 283 284 284 284 285 286 287 289 291 293 293 294 293 293 292 290 288 285 282 280 278 276 274 272 270 267 265 264 263 263 262 262 262 261 261 262 262
294 295 295 290 281 274 267 264 264 263 261 260 260 260 257 255 257 258 260 262 261 258 260 264 267 267 266 257 246 241 243 247 254 264 268 269 269 270 271 273 274 275 276 277 279 280 281 282 283 284 284 284 284 286 289 291 292 292 292 291 291 291 290 289 288 286 284 281 279 277 275 273 271 269 266 265 263 263 262 261 261 260 258 259 260
294 294 294 291 285 280 274 268 265 264 263 260 259 261 262 260 258 258 258 260 261 258 257 259 263 264 266 262 251 241 238 244 257 267 271 271 270 271 272 273 274 276 277 278 279 280 281 282 284 285 285 286 288 290 292 293 292 291 291 291 290 290 289 288 287 285 283 281 280 279 277 275 273 270 268 266 264 263 262 261 260 259 258 257 257
296 294 293 292 289 285 282 276 271 269 267 263 260 261 263 263 260 259 260 261 262 260 256 256 258 258 260 261 253 242 236 242 255 265 269 271 271 272 274 275 276 277 278 279 280 281 283 284 286 287 288 289 291 292 293 292 291 291 291 290 289 289 287 286 284 283 281 280 279 278 277 276 275 273 271 269 266 264 263 261 260 259 258 256 255
296 295 294 293 291 287 284 280 275 273 270 266 262 261 261 262 262 263 265 267 267 261 253 251 252 250 249 251 247 239 234 237 246 258 265 268 271 273 275 276 277 278 280 282 283 284 285 287 287 288 289 291 292 293 293 293 293 292 292 291 289 288 286 284 283 281 280 279 278 277 277 276 276 275 273 272 270 268 266 263 261 259 258 256 254
297 297 295 293 290 287 284 280 275 272 270 267 265 262 260 259 261 264 266 268 270 263 247 239 240 237 232 232 230 227 228 234 241 252 261 265 270 273 274 275 278 280 282 283 284 284 285 286 287 289 291 293 294 295 295 294 294 293 292 291 289 287 286 284 283 281 280 280 280 279 278 278 277 276 274 273 272 271 269 267 264 261 258 256 254
297 298 295 291 288 287 286 283 277 273 272 269 266 263 260 257 258 262 264 264 267 263 248 237 235 231 223 220 220 222 230 240 244 251 257 262 267 270 273 277 280 281 282 282 283 285 287 289 292 294 295 296 296 295 294 294 294 293 291 290 289 287 286 285 284 283 282 282 281 281 280 279 278 276 274 273 272 270 269 267 266 263 260 257 254
292 291 289 286 284 285 286 285 281 276 274 271 268 264 259 257 256 259 262 261 258 256 250 242 240 241 240 239 235 232 239 246 247 251 255 258 264 269 274 279 280 280 282 284 287 291 294 296 298 297 297 296 295 295 295 294 294 293 291 289 288 287 286 286 285 284 284 283 282 282 281 280 279 277 275 272 270 269 268 266 265 264 262 259 256
288 286 284 281 280 281 283 283 280 278 275 271 268 263 259 257 256 257 261 260 256 252 245 238 239 247 247 242 236 231 237 246 250 254 257 260 266 271 275 278 279 282 287 290 292 295 296 297 296 295 295 295 295 296 297 296 295 293 292 290 289 288 287 286 286 285 284 284 283 282 282 282 281 279 276 273 270 267 266 265 264 262 261 259 258
288 285 283 281 279 279 280 280 278 276 272 268 265 261 258 257 256 255 258 259 257 252 242 239 245 244 234 227 226 231 241 250 254 256 259 264 271 277 280 283 286 289 291 292 293 294 294 293 293 293 295 296 297 298 298 297 296 294 293 292 290 289 288 287 287 286 285 284 284 284 284 283 281 279 276 273 270 266 264 263 262 261 260 259 257
291 286 283 281 279 278 277 277 278 275 269 265 262 258 256 255 253 253 254 255 254 248 242 242 242 231 221 223 233 240 247 252 254 257 262 269 276 282 287 290 291 291 291 290 291 292 292 292 294 296 298 298 299 299 298 298 297 296 295 294 292 291 290 289 288 287 286 286 285 285 284 283 281 279 276 272 268 264 262 261 259 258 259 258 255
290 292 288 282 278 277 276 276 277 276 270 264 260 257 255 253 251 250 250 249 247 243 241 240 232 219 218 228 235 241 249 251 254 261 268 274 281 287 289 290 289 288 288 290 292 293 296 298 301 302 302 301 301 301 300 299 298 297 297 296 294 294 293 292 291 290 288 288 287 286 285 283 281 278 275 271 267 262 260 258 257 256 256 255 254
285 292 293 287 280 277 277 277 278 277 272 266 261 257 254 251 249 247 245 241 237 235 238 240 231 219 216 224 229 237 247 248 253 263 270 278 285 286 285 285 285 288 292 295 298 301 304 305 306 305 305 304 304 303 301 299 298 297 297 297 296 296 297 296 295 293 292 291 289 288 286 284 281 279 276 272 266 261 258 256 256 255 254 254 253
286 289 291 289 283 279 279 280 280 277 273 269 263 258 254 251 247 244 241 234 230 231 232 229 217 205 205 218 227 235 242 247 257 266 273 280 282 280 282 289 295 301 303 305 307 309 309 309 309 308 307 307 306 304 302 300 299 298 298 299 299 300 300 299 297 295 294 292 290 288 285 283 281 279 276 270 264 259 257 256 256 255 254 254 253
289 288 289 287 285 283 283 282 279 275 272 267 260 255 254 250 245 240 233 227 226 226 218 203 194 194 204 217 224 231 240 250 261 269 274 276 277 285 300 311 314 314 314 315 316 315 313 312 312 311 310 309 308 305 303 301 301 301 301 302 302 302 301 299 297 294 292 290 288 286 284 283 281 278 274 270 266 263 261 260 258 257 255 253 253
289 289 288 286 286 285 284 282 278 274 270 263 256 251 248 246 246 238 224 216 213 206 194 188 192 202 208 212 221 229 237 250 261 267 270 274 287 311 323 325 326 326 324 322 320 318 317 316 314 313 311 310 310 308 307 306 306 306 306 305 304 304 303 300 296 293 290 287 285 284 283 281 277 275 275 274 272 270 267 263 261 259 257 256 254
290 288 286 285 285 285 284 283 277 268 259 253 249 247 242 241 237 220 201 194 191 185 185 194 206 207 204 211 222 228 235 249 257 263 273 291 314 327 329 332 334 331 327 323 321 320 319 318 316 315 313 313 313 313 312 312 312 311 309 307 307 307 306 302 297 292 289 286 283 281 280 277 275 275 276 276 274 272 268 264 262 259 257 257 256
289 286 283 283 283 280 273 266 254 242 233 226 218 210 204 203 197 184 176 177 179 182 191 200 200 197 202 209 215 225 238 248 257 271 294 315 324 327 331 335 334 329 326 324 323 323 322 320 318 317 316 317 317 318 318 318 316 314 312 311 310 310 308 303 297 292 287 283 282 279 277 276 277 277 276 274 273 271 267 264 261 257 255 255 256
285 280 277 273 261 227 188 170 164 164 170 178 179 169 158 159 162 164 169 172 174 181 190 193 191 194 201 206 214 228 239 249 269 295 312 320 322 325 330 331 329 328 327 326 326 325 323 322 321 321 321 321 321 322 323 322 320 319 317 316 315 313 309 304 301 294 287 281 278 276 275 276 278 278 276 273 271 268 265 262 259 256 255 255 257
277 269 255 230 201 179 165 156 151 152 158 165 165 153 142 140 144 152 162 168 173 183 191 192 194 198 203 211 222 230 241 263 294 310 315 317 320 324 327 327 327 328 328 327 327 325 323 323 324 326 326 327 327 328 328 326 324 323 322 321 318 315 311 309 304 296 289 285 281 277 279 282 282 281 278 275 270 265 261 258 256 255 254 254 257
265 245 212 178 161 159 155 150 144 138 142 151 151 139 130 133 144 154 165 174 181 188 192 195 202 206 209 217 226 234 255 285 301 310 313 315 318 322 324 325 328 329 328 327 326 325 325 328 330 332 332 333 333 333 332 330 329 327 325 323 321 318 316 313 307 296 288 287 286 286 291 292 287 283 279 274 269 264 260 258 257 256 254 252 253
Height
3122 3122 3123 3124 3125 3127 3127 3128 3129 3130 3130 3130 3131 3131 3131 3130 3130 3129 3129 3128 3128 3128 3128 3128 3129 3129 3129 3129 3128 3128 3128 3127 3127 3127 3128 3128 3129 3129 3130 3131 3131 3132 3134 3135 3137 3138 3138 3138 3139 3140 3140 3141 3143 3144 3145 3146 3147 3147 3147 3147 3148 3150 3152 3153 3153 3154 3156 3157 3157 3157 3158 3158 3158 3159 3160 3161 3162 3163 3164 3165 3166 3168 3169 3169 3170
3119 3120 3121 3122 3123 3125 3125 3125 3126 3127 3128 3129 3129 3130 3129 3129 3129 3129 3128 3128 3127 3127 3127 3127 3128 3128 3128 3128 3128 3128 3127 3127 3126 3126 3126 3127 3127 3128 3128 3129 3129 3130 3131 3133 3135 3136 3136 3136 3137 3139 3140 3140 3141 3142 3143 3144 3144 3145 3146 3146 3147 3148 3150 3151 3152 3153 3154 3156 3155 3155 3156 3156 3157 3158 3158 3159 3160 3161 3162 3163 3164 3165 3166 3167 3167
3117 3118 3119 3120 3122 3123 3122 3123 3124 3125 3126 3128 3128 3128 3128 3128 3128 3128 3128 3127 3127 3126 3126 3125 3126 3127 3127 3127 3127 3127 3127 3127 3126 3126 3126 3126 3126 3127 3127 3128 3128 3129 3130 3131 3132 3133 3134 3135 3135 3137 3138 3139 3140 3140 3141 3142 3143 3144 3144 3145 3146 3147 3148 3149 3150 3152 3152 3154 3154 3153 3154 3154 3155 3156 3157 3158 3158 3159 3160 3161 3161 3162 3163 3163 3164
3115 3116 3117 3119 3120 3121 3121 3121 3122 3123 3124 3126 3127 3127 3127 3127 3126 3126 3127 3126 3126 3126 3125 3124 3125 3125 3125 3126 3126 3126 3126 3126 3126 3125 3125 3125 3125 3126 3126 3126 3127 3127 3128 3129 3130 3131 3132 3132 3133 3134 3135 3136 3137 3138 3139 3140 3141 3142 3142 3143 3144 3145 3146 3146 3149 3150 3150 3151 3151 3152 3152 3151 3152 3154 3155 3156 3156 3157 3158 3159 3159 3159 3159 3160 3161
3114 3115 3116 3117 3118 3119 3119 3119 3120 3121 3123 3125 3125 3126 3126 3126 3125 3125 3125 3125 3125 3125 3124 3123 3124 3124 3124 3124 3125 3125 3125 3125 3125 3125 3125 3125 3125 3125 3125 3125 3126 3126 3126 3127 3127 3128 3129 3130 3130 3131 3133 3133 3134 3135 3136 3137 3138 3139 3140 3141 3141 3142 3143 3144 3147 3148 3147 3148 3149 3149 3149 3149 3150 3151 3152 3153 3154 3155 3156 3157 3157 3157 3156 3156 3157
3112 3113 3114 3115 3116 3117 3117 3118 3118 3119 3121 3123 3124 3124 3124 3124 3124 3124 3124 3124 3124 3124 3123 3122 3122 3123 3123 3123 3124 3124 3125 3125 3125 3125 3125 3125 3125 3125 3125 3125 3125 3125 3125 3125 3126 3126 3127 3128 3128 3129 3130 3131 3132 3133 3134 3134 3135 3136 3136 3138 3138 3139 3140 3141 3143 3145 3145 3146 3147 3147 3146 3147 3149 3149 3148 3149 3150 3152 3153 3154 3155 3155 3154 3154 3154
3110 3110 3111 3113 3115 3116 3116 3116 3116 3117 3120 3121 3122 3123 3123 3123 3123 3123 3123 3124 3124 3123 3123 3122 3121 3122 3122 3123 3123 3124 3124 3124 3125 3125 3124 3124 3124 3124 3124 3124 3124 3124 3124 3124 3125 3125 3125 3126 3126 3127 3128 3128 3129 3130 3131 3132 3132 3133 3133 3135 3136 3136 3137 3138 3139 3140 3141 3143 3144 3144 3144 3145 3147 3147 3146 3146 3146 3148 3150 3151 3152 3152 3152 3151 3152
3108 3108 3109 3111 3113 3114 3114 3114 3115 3116 3118 3119 3120 3121 3122 3122 3122 3122 3122 3123 3123 3123 3122 3122 3121 3121 3122 3122 3123 3123 3123 3124 3124 3124 3124 3123 3123 3123 3123 3123 3124 3124 3124 3124 3124 3124 3124 3125 3125 3125 3126 3126 3127 3128 3129 3129 3130 3130 3131 3131 3132 3133 3134 3135 3136 3137 3137 3139 3140 3141 3142 3143 3143 3143 3143 3143 3143 3144 3146 3148 3149 3149 3149 3149 3149
3106 3107 3108 3109 3111 3112 3113 3113 3114 3115 3116 3117 3119 3120 3120 3121 3121 3121 3121 3122 3122 3122 3121 3121 3121 3121 3121 3122 3122 3123 3123 3123 3123 3123 3123 3123 3123 3122 3122 3122 3123 3123 3123 3123 3123 3123 3124 3124 3124 3124 3124 3125 3125 3126 3126 3127 3128 3128 3128 3128 3129 3130 3131 3132 3133 3133 3134 3135 3136 3137 3138 3139 3139 3139 3139 3140 3141 3141 3142 3145 3146 3146 3146 3146 3147
3104 3105 3106 3107 3109 3110 3111 3112 3113 3114 3114 3116 3117 3118 3118 3119 3119 3120 3120 3121 3121 3120 3120 3120 3120 3120 3120 3121 3121 3122 3122 3122 3122 3122 3122 3122 3122 3122 3122 3121 3121 3121 3122 3122 3122 3123 3123 3123 3123 3123 3123 3123 3123 3124 3124 3125 3125 3126 3126 3126 3126 3127 3128 3129 3129 3130 3131 3132 3132 3133 3133 3134 3135 3135 3136 3137 3138 3138 3139 3141 3142 3142 3142 3143 3144
3103 3103 3103 3105 3106 3108 3110 3111 3111 3112 3113 3114 3115 3115 3116 3117 3117 3118 3118 3119 3119 3119 3118 3118 3119 3119 3119 3119 3120 3120 3120 3120 3120 3120 3120 3120 3120 3120 3120 3120 3120 3120 3120 3120 3120 3121 3121 3121 3121 3122 3122 3122 3122 3122 3123 3123 3123 3124 3124 3124 3124 3124 3125 3126 3126 3127 3128 3128 3129 3129 3129 3130 3130 3131 3133 3134 3134 3135 3135 3136 3138 3138 3138 3139 3140
3102 3102 3102 3103 3104 3106 3108 3109 3110 3112 3112 3113 3113 3114 3114 3115 3115 3116 3116 3117 3118 3118 3117 3117 3117 3118 3118 3118 3119 3119 3119 3119 3119 3119 3118 3118 3118 3118 3118 3118 3118 3118 3118 3118 3118 3119 3119 3119 3119 3120 3120 3120 3121 3121 3121 3121 3121 3122 3122 3122 3121 3121 3122 3123 3123 3124 3124 3125 3125 3125 3126 3126 3127 3127 3129 3130 3130 3131 3132 3131 3133 3135 3134 3134 3136
3100 3100 3101 3102 3103 3104 3106 3107 3109 3110 3111 3112 3112 3112 3113 3113 3113 3114 3114 3115 3116 3116 3116 3115 3115 3116 3117 3117 3117 3117 3117 3118 3117 3117 3117 3117 3116 3116 3116 3116 3116 3117 3117 3117 3117 3117 3117 3117 3117 3118 3118 3118 3118 3119 3119 3119 3119 3119 3119 3119 3119 3119 3119 3120 3120 3120 3121 3122 3122 3122 3122 3123 3124 3125 3125 3126 3127 3128 3127 3127 3130 3131 3130 3130 3132
3098 3099 3099 3100 3102 3103 3104 3106 3107 3108 3109 3110 3111 3111 3111 3111 3112 3112 3113 3114 3114 3114 3114 3114 3114 3114 3115 3115 3115 3115 3116 3116 3116 3115 3115 3115 3115 3114 3114 3114 3114 3115 3115 3115 3116 3115 3115 3115 3115 3116 3116 3116 3116 3116 3116 3117 3117 3117 3117 3117 3117 3117 3117 3117 3117 3117 3118 3118 3119 3119 3120 3120 3121 3122 3122 3122 3123 3123 3123 3124 3125 3126 3125 3126 3127
3096 3097 3098 3099 3100 3101 3103 3104 3105 3106 3107 3108 3109 3109 3109 3110 3110 3111 3112 3112 3112 3112 3112 3112 3112 3113 3113 3114 3114 3114 3114 3114 3113 3113 3113 3113 3113 3112 3112 3111 3112 3112 3113 3113 3113 3113 3114 3114 3114 3114 3113 3113 3114 3114 3114 3114 3114 3115 3115 3115 3115 3114 3114 3114 3114 3114 3115 3115 3115 3116 3116 3117 3118 3118 3118 3118 3118 3118 3119 3120 3121 3120 3120 3121 3122
3095 3096 3097 3098 3099 3100 3101 3102 3103 3104 3105 3106 3106 3107 3107 3108 3108 3109 3110 3110 3110 3110 3110 3110 3111 3111 3111 3112 3112 3112 3112 3111 3111 3111 3110 3110 3110 3109 3109 3109 3109 3109 3110 3110 3110 3110 3111 3111 3111 3111 3111 3111 3111 3111 3112 3112 3112 3112 3112 3112 3112 3112 3112 3112 3112 3112 3112 3112 3112 3112 3113 3113 3114 3114 3114 3114 3114 3115 3115 3116 3116 3116 3116 3116 3117
3095 3096 3096 3097 3097 3098 3098 3099 3100 3101 3102 3103 3104 3104 3105 3105 3106 3107 3108 3108 3108 3108 3108 3108 3108 3109 3110 3110 3110 3110 3110 3109 3109 3108 3108 3108 3107 3107 3107 3106 3106 3106 3106 3106 3107 3107 3107 3108 3108 3108 3108 3108 3108 3108 3109 3109 3110 3110 3110 3110 3110 3110 3110 3109 3109 3109 3109 3108 3108 3109 3109 3110 3110 3110 3110 3110 3110 3110 3111 3111 3112 3112 3111 3111 3111
3094 3096 3096 3096 3095 3096 3096 3096 3097 3098 3099 3100 3101 3101 3102 3103 3104 3105 3105 3106 3106 3106 3106 3106 3106 3107 3108 3108 3108 3108 3108 3107 3107 3107 3106 3106 3105 3105 3104 3104 3104 3103 3103 3103 3103 3104 3104 3104 3104 3104 3104 3105 3105 3105 3106 3106 3107 3107 3107 3107 3107 3107 3107 3107 3106 3106 3106 3105 3105 3105 3105 3106 3106 3106 3106 3106 3106 3106 3106 3106 3107 3107 3107 3106 3107
3092 3094 3095 3095 3094 3094 3094 3094 3095 3096 3097 3098 3099 3099 3099 3100 3101 3102 3103 3103 3104 3104 3104 3104 3104 3105 3105 3106 3106 3106 3106 3106 3106 3105 3105 3104 3104 3103 3103 3102 3102 3101 3101 3100 3100 3100 3100 3100 3101 3101 3101 3101 3101 3102 3102 3103 3103 3103 3103 3103 3103 3103 3103 3103 3103 3102 3102 3102 3102 3102 3102 3102 3102 3102 3102 3102 3102 3102 3101 3102 3102 3103 3103 3102 3103
3090 3091 3092 3093 3093 3093 3093 3094 3094 3095 3095 3096 3096 3097 3098 3098 3099 3100 3100 3101 3101 3101 3102 3102 3102 3102 3103 3104 3104 3104 3104 3104 3104 3104 3103 3103 3102 3102 3101 3101 3100 3100 3099 3099 3098 3097 3097 3097 3097 3097 3097 3098 3098 3098 3099 3099 3099 3099 3099 3099 3099 3099 3099 3099 3099 3099 3098 3098 3098 3098 3098 3098 3098 3097 3098 3098 3098 3098 3097 3097 3098 3098 3099 3099 3099
3089 3088 3088 3089 3090 3091 3091 3092 3093 3093 3093 3094 3094 3095 3096 3096 3097 3097 3098 3099 3099 3099 3100 3100 3100 3100 3101 3101 3102 3102 3102 3102 3102 3102 3102 3101 3101 3100 3100 3099 3099 3098 3098 3097 3096 3095 3095 3094 3094 3094 3094 3094 3094 3095 3095 3095 3095 3095 3095 3095 3095 3094 3095 3095 3095 3095 3094 3094 3093 3094 3094 3094 3093 3093 3093 3093 3093 3093 3093 3093 3093 3093 3094 3095 3095
3086 3086 3087 3087 3088 3088 3089 3090 3091 3091 3090 3091 3092 3092 3093 3094 3095 3095 3096 3097 3097 3098 3098 3099 3098 3098 3099 3099 3100 3100 3100 3100 3100 3100 3100 3099 3099 3098 3098 3098 3097 3096 3096 3095 3094 3094 3093 3093 3092 3092 3091 3091 3091 3091 3092 3092 3092 3092 3092 3092 3091 3091 3091 3090 3090 3090 3089 3089 3088 3089 3090 3089 3088 3088 3089 3089 3089 3089 3089 3089 3089 3089 3089 3090 3091
3085 3085 3086 3087 3085 3085 3085 3086 3087 3087 3087 3088 3088 3088 3089 3091 3092 3092 3093 3094 3095 3096 3097 3097 3097 3097 3097 3097 3098 3098 3097 3097 3098 3098 3097 3097 3097 3096 3096 3096 3095 3094 3093 3093 3092 3091 3091 3090 3090 3089 3089 3088 3088 3088 3088 3089 3089 3089 3088 3088 3088 3087 3087 3087 3086 3086 3085 3084 3083 3084 3084 3084 3083 3083 3084 3084 3084 3085 3084 3084 3084 3085 3085 3085 3086
3083 3083 3085 3084 3083 3082 3082 3082 3083 3084 3084 3085 3085 3086 3086 3087 3088 3088 3089 3091 3092 3093 3094 3094 3095 3095 3095 3095 3096 3096 3095 3095 3096 3096 3095 3095 3094 3094 3094 3093 3092 3092 3091 3090 3089 3089 3088 3087 3087 3086 3086 3085 3085 3085 3085 3085 3085 3085 3085 3085 3084 3083 3083 3083 3082 3081 3080 3080 3079 3079 3079 3079 3078 3078 3079 3079 3079 3079 3079 3079 3079 3080 3080 3081 3082
3080 3080 3081 3081 3081 3081 3081 3080 3080 3080 3080 3081 3081 3082 3083 3084 3084 3084 3085 3087 3088 3089 3091 3092 3092 3093 3093 3093 3093 3093 3093 3093 3094 3093 3093 3092 3092 3091 3091 3090 3089 3089 3088 3087 3086 3085 3085 3084 3083 3083 3082 3082 3082 3081 3081 3081 3081 3081 3080 3080 3079 3079 3078 3078 3077 3077 3076 3075 3074 3074 3074 3074 3072 3072 3073 3074 3074 3074 3074 3074 3074 3075 3076 3076 3077
3077 3078 3078 3079 3079 3079 3077 3077 3077 3076 3076 3077 3077 3078 3080 3080 3080 3080 3081 3082 3083 3084 3086 3088 3089 3090 3090 3091 3091 3091 3091 3091 3091 3091 3091 3090 3090 3089 3089 3087 3087 3086 3085 3084 3083 3082 3081 3081 3080 3080 3079 3079 3078 3078 3077 3077 3076 3076 3075 3075 3074 3073 3073 3072 3072 3071 3071 3070 3069 3069 3069 3069 3068 3067 3067 3068 3068 3068 3068 3068 3069 3070 3071 3071 3071
3073 3074 3075 3075 3075 3075 3074 3073 3074 3074 3073 3074 3074 3075 3076 3076 3076 3077 3077 3078 3079 3080 3081 3083 3086 3087 3088 3089 3089 3089 3089 3089 3089 3089 3088 3088 3087 3087 3086 3085 3084 3082 3081 3080 3079 3079 3078 3077 3077 3076 3076 3075 3075 3074 3073 3073 3072 3071 3070 3069 3069 3068 3067 3066 3066 3065 3065 3064 3064 3063 3063 3063 3063 3062 3062 3062 3062 3062 3062 3062 3063 3064 3065 3065 3066
3068 3069 3070 3070 3071 3070 3070 3070 3070 3071 3071 3070 3071 3071 3072 3072 3073 3074 3074 3074 3075 3075 3076 3078 3081 3084 3086 3086 3086 3086 3086 3086 3086 3086 3085 3085 3084 3084 3083 3082 3081 3079 3078 3077 3076 3075 3074 3074 3073 3073 3072 3072 3071 3070 3069 3068 3067 3066 3065 3064 3063 3062 3061 3060 3060 3059 3059 3058 3058 3057 3057 3057 3057 3057 3056 3056 3056 3056 3056 3056 3057 3057 3058 3059 3060
3064 3064 3064 3065 3066 3066 3066 3066 3066 3066 3066 3066 3066 3067 3068 3068 3068 3069 3070 3070 3070 3072 3073 3074 3076 3079 3080 3081 3082 3083 3084 3083 3083 3083 3082 3081 3081 3080 3080 3079 3077 3076 3074 3073 3072 3071 3071 3070 3070 3069 3068 3068 3067 3066 3065 3064 3062 3061 3060 3058 3057 3056 3055 3054 3054 3053 3053 3052 3052 3051 3051 3051 3051 3051 3050 3050 3051 3051 3050 3050 3051 3051 3052 3053 3054
3061 3060 3061 3061 3062 3062 3062 3062 3062 3062 3061 3061 3061 3062 3063 3063 3063 3064 3064 3065 3066 3067 3068 3069 3070 3072 3074 3076 3078 3079 3080 3080 3080 3080 3079 3078 3077 3076 3076 3075 3073 3072 3071 3069 3068 3067 3067 3066 3065 3065 3064 3063 3062 3061 3060 3059 3058 3056 3054 3053 3052 3051 3050 3048 3048 3047 3047 3046 3046 3045 3045 3045 3045 3044 3044 3044 3045 3045 3045 3044 3045 3046 3046 3046 3047
3057 3057 3057 3058 3058 3058 3058 3058 3058 3058 3058 3057 3056 3057 3057 3057 3058 3059 3059 3060 3060 3061 3063 3064 3065 3067 3068 3070 3072 3074 3075 3076 3076 3076 3075 3074 3073 3072 3072 3071 3069 3068 3067 3065 3064 3063 3062 3062 3061 3060 3059 3058 3057 3056 3055 3054 3052 3050 3049 3047 3046 3045 3044 3043 3042 3041 3041 3040 3040 3039 3038 3038 3038 3038 3038 3038 3038 3039 3039 3039 3039 3040 3040 3040 3040
3053 3054 3054 3054 3054 3054 3053 3053 3053 3053 3054 3053 3052 3052 3052 3052 3052 3052 3053 3053 3054 3055 3057 3059 3061 3062 3062 3064 3066 3068 3070 3070 3071 3071 3071 3070 3069 3068 3067 3066 3065 3064 3063 3062 3061 3059 3058 3057 3057 3056 3055 3053 3052 3051 3050 3048 3047 3045 3043 3041 3040 3039 3038 3037 3036 3034 3034 3034 3033 3033 3032 3032 3032 3032 3032 3032 3031 3032 3032 3032 3032 3033 3034 3034 3033
3049 3049 3049 3049 3049 3049 3049 3048 3048 3048 3049 3049 3048 3048 3048 3048 3047 3047 3047 3047 3048 3049 3052 3054 3056 3057 3057 3058 3060 3063 3064 3065 3066 3067 3067 3065 3065 3064 3063 3062 3061 3060 3059 3058 3057 3055 3054 3053 3052 3050 3049 3048 3046 3045 3044 3043 3041 3039 3037 3035 3033 3032 3031 3031 3030 3028 3028 3027 3026 3026 3026 3026 3026 3025 3025 3025 3025 3025 3025 3025 3026 3026 3027 3027 3027
3043 3043 3043 3043 3043 3043 3043 3043 3043 3042 3043 3044 3044 3043 3043 3043 3043 3043 3042 3042 3042 3044 3047 3048 3050 3051 3052 3053 3055 3056 3057 3059 3061 3062 3062 3061 3060 3060 3058 3058 3057 3056 3055 3054 3053 3051 3049 3048 3046 3045 3043 3042 3041 3040 3038 3036 3035 3033 3031 3029 3027 3025 3025 3024 3023 3022 3021 3020 3020 3019 3019 3019 3019 3018 3018 3018 3017 3017 3018 3018 3018 3018 3020 3021 3021
3038 3037 3038 3037 3037 3037 3037 3036 3037 3037 3037 3038 3038 3038 3038 3038 3038 3038 3037 3037 3037 3039 3041 3043 3045 3046 3047 3047 3048 3049 3050 3052 3054 3056 3056 3056 3056 3055 3054 3053 3053 3052 3051 3050 3048 3046 3044 3043 3041 3040 3038 3037 3036 3034 3032 3030 3028 3026 3024 3022 3020 3019 3018 3017 3016 3015 3014 3014 3013 3013 3012 3012 3011 3011 3011 3010 3010 3009 3009 3010 3011 3011 3012 3014 3014
3033 3032 3032 3032 3032 3031 3030 3029 3030 3031 3031 3032 3033 3033 3033 3032 3032 3032 3032 3033 3034 3034 3035 3037 3038 3038 3039 3039 3040 3041 3043 3046 3048 3050 3051 3052 3051 3051 3050 3049 3049 3048 3047 3046 3044 3042 3040 3038 3037 3035 3033 3032 3030 3028 3026 3024 3022 3020 3018 3016 3014 3012 3011 3010 3009 3009 3008 3007 3006 3006 3005 3005 3004 3004 3004 3003 3002 3001 3001 3001 3002 3003 3004 3005 3007
3029 3028 3027 3027 3026 3025 3024 3023 3023 3024 3025 3027 3027 3028 3028 3027 3026 3026 3027 3028 3029 3031 3033 3034 3034 3034 3035 3035 3035 3037 3039 3041 3043 3045 3046 3046 3047 3046 3046 3046 3045 3044 3043 3041 3039 3038 3036 3034 3032 3030 3028 3026 3025 3023 3021 3018 3016 3013 3011 3009 3007 3005 3004 3002 3002 3001 3000 3000 2999 2998 2997 2997 2996 2996 2996 2995 2995 2993 2992 2992 2993 2994 2995 2996 2999
3024 3023 3023 3022 3021 3020 3019 3018 3017 3018 3019 3020 3021 3022 3022 3022 3021 3021 3021 3022 3024 3027 3029 3031 3032 3034 3034 3034 3034 3035 3037 3038 3040 3041 3041 3042 3042 3042 3042 3042 3041 3040 3038 3036 3035 3033 3030 3028 3026 3025 3023 3021 3020 3018 3015 3013 3010 3008 3005 3003 3001 2999 2997 2996 2995 2994 2993 2992 2990 2990 2989 2988 2987 2987 2987 2987 2986 2984 2983 2983 2983 2984 2985 2987 2990
3020 3018 3017 3017 3016 3015 3014 3014 3013 3012 3013 3014 3014 3015 3016 3017 3017 3016 3015 3016 3019 3022 3025 3027 3029 3031 3030 3030 3031 3032 3034 3035 3037 3038 3038 3038 3039 3039 3039 3038 3037 3035 3033 3031 3029 3028 3026 3024 3022 3021 3019 3017 3014 3012 3010 3007 3005 3003 3000 2997 2995 2992 2990 2989 2987 2986 2984 2983 2982 2981 2980 2979 2978 2978 2977 2977 2977 2975 2973 2973 2973 2973 2974 2977 2981
3014 3013 3011 3010 3010 3009 3008 3008 3008 3007 3007 3007 3007 3008 3009 3010 3011 3011 3010 3011 3014 3017 3021 3023 3025 3026 3027 3027 3028 3030 3031 3033 3034 3035 3035 3035 3035 3035 3034 3033 3032 3030 3028 3026 3025 3023 3022 3020 3019 3017 3015 3012 3009 3007 3005 3002 3000 2997 2994 2992 2989 2986 2984 2981 2980 2978 2976 2974 2973 2971 2970 2969 2968 2967 2966 2966 2965 2964 2963 2963 2962 2962 2963 2967 2971
3008 3006 3005 3004 3003 3002 3002 3002 3002 3001 3001 3000 3000 3001 3003 3004 3005 3004 3004 3006 3009 3012 3015 3017 3019 3021 3023 3024 3025 3028 3029 3030 3031 3032 3032 3031 3031 3031 3030 3029 3028 3026 3024 3023 3021 3019 3018 3017 3015 3013 3010 3008 3005 3002 2999 2997 2994 2991 2988 2985 2982 2979 2977 2974 2971 2969 2967 2965 2964 2962 2960 2959 2957 2955 2954 2954 2953 2953 2952 2951 2951 2951 2952 2955 2958
3002 3001 2999 2997 2996 2996 2995 2995 2995 2994 2994 2994 2994 2995 2996 2998 2998 2998 2999 3002 3004 3006 3010 3013 3016 3018 3019 3020 3022 3024 3026 3028 3028 3029 3029 3028 3028 3027 3026 3025 3024 3022 3021 3019 3017 3015 3013 3012 3010 3008 3005 3003 3000 2997 2994 2991 2988 2985 2982 2979 2975 2972 2969 2965 2962 2959 2957 2955 2954 2952 2950 2948 2946 2944 2943 2943 2942 2942 2941 2940 2940 2940 2941 2943 2945
2997 2996 2994 2992 2990 2989 2989 2989 2988 2987 2987 2986 2987 2988 2989 2991 2992 2993 2995 2998 2999 3001 3005 3010 3012 3014 3015 3016 3019 3021 3023 3025 3026 3026 3026 3025 3025 3024 3023 3022 3020 3019 3017 3016 3014 3011 3009 3006 3004 3002 3000 2997 2995 2992 2989 2986 2983 2980 2976 2973 2969 2965 2961 2957 2953 2949 2947 2945 2943 2941 2939 2937 2935 2934 2933 2933 2932 2932 2931 2930 2930 2930 2931 2931 2933
2991 2990 2989 2987 2984 2983 2982 2982 2981 2980 2979 2979 2979 2980 2982 2984 2986 2988 2990 2992 2994 2997 3002 3006 3008 3009 3012 3014 3016 3019 3021 3022 3023 3022 3022 3022 3022 3021 3020 3019 3017 3015 3014 3012 3009 3007 3004 3002 2999 2997 2994 2992 2989 2987 2983 2980 2977 2973 2970 2966 2962 2958 2954 2950 2945 2940 2937 2935 2932 2931 2929 2927 2926 2926 2925 2924 2923 2923 2922 2922 2922 2922 2922 2923 2923
2985 2984 2983 2981 2978 2977 2976 2975 2974 2973 2971 2971 2972 2973 2975 2977 2980 2982 2984 2987 2989 2991 2997 3001 3004 3006 3009 3011 3014 3017 3018 3019 3019 3019 3019 3019 3019 3018 3017 3015 3014 3012 3010 3008 3005 3003 3000 2997 2994 2991 2988 2986 2984 2981 2977 2974 2970 2966 2963 2959 2955 2951 2947 2942 2937 2932 2929 2926 2923 2922 2920 2920 2919 2918 2917 2916 2915 2915 2915 2915 2915 2915 2914 2914 2915
2979 2978 2977 2975 2973 2971 2970 2968 2967 2966 2965 2964 2965 2967 2969 2972 2974 2976 2978 2982 2986 2989 2993 2998 3000 3003 3007 3009 3012 3014 3015 3016 3016 3016 3016 3016 3016 3015 3013 3012 3010 3008 3006 3004 3001 2999 2996 2992 2989 2986 2983 2980 2978 2974 2970 2966 2962 2958 2955 2951 2947 2943 2939 2934 2929 2925 2921 2919 2916 2915 2914 2913 2913 2912 2911 2909 2908 2908 2908 2908 2908 2908 2907 2907 2908
2974 2973 2971 2969 2967 2966 2964 2962 2960 2960 2960 2961 2962 2963 2964 2966 2968 2971 2975 2980 2985 2989 2993 2996 2999 3002 3005 3007 3009 3011 3013 3013 3013 3014 3013 3013 3012 3012 3011 3009 3007 3005 3002 3000 2997 2995 2992 2988 2985 2982 2978 2975 2972 2968 2963 2959 2955 2951 2947 2943 2939 2935 2930 2926 2922 2918 2915 2912 2910 2909 2908 2907 2906 2906 2905 2903 2902 2902 2902 2901 2901 2901 2901 2901 2902
2969 2968 2966 2964 2963 2962 2960 2958 2957 2956 2956 2959 2960 2961 2961 2963 2966 2971 2976 2981 2985 2989 2992 2995 2998 3001 3003 3006 3008 3009 3010 3011 3011 3011 3011 3010 3010 3009 3008 3007 3004 3002 2999 2997 2994 2991 2988 2985 2981 2977 2973 2969 2966 2961 2957 2952 2948 2943 2939 2935 2930 2926 2922 2918 2915 2912 2909 2907 2905 2904 2903 2902 2901 2900 2900 2899 2898 2897 2896 2896 2896 2895 2895 2895 2896
2964 2963 2962 2961 2960 2959 2958 2958 2957 2956 2956 2958 2960 2961 2963 2965 2969 2974 2978 2981 2984 2988 2991 2994 2997 3000 3003 3005 3007 3007 3008 3009 3009 3008 3008 3008 3008 3007 3006 3004 3002 2999 2997 2994 2991 2988 2985 2981 2977 2973 2968 2963 2959 2955 2951 2946 2942 2937 2932 2927 2922 2918 2914 2911 2909 2906 2904 2902 2901 2900 2899 2898 2897 2896 2895 2894 2893 2892 2892 2891 2891 2890 2890 2890 2890
2959 2959 2959 2959 2958 2958 2958 2958 2958 2958 2958 2959 2961 2963 2965 2968 2972 2976 2979 2982 2985 2988 2991 2994 2997 3000 3002 3004 3005 3006 3007 3007 3007 3006 3006 3006 3005 3005 3003 3002 2999 2996 2994 2991 2989 2985 2982 2978 2974 2969 2964 2958 2953 2949 2945 2941 2936 2931 2926 2921 2917 2912 2908 2905 2903 2901 2899 2898 2897 2896 2895 2894 2893 2892 2891 2890 2889 2888 2887 2886 2886 2886 2885 2885 2885
2955 2956 2957 2958 2958 2958 2958 2959 2960 2960 2960 2961 2963 2965 2967 2971 2974 2977 2980 2983 2986 2989 2992 2995 2997 2999 3001 3002 3004 3005 3005 3005 3004 3005 3004 3004 3003 3002 3001 2999 2996 2994 2991 2989 2986 2982 2979 2974 2969 2965 2960 2955 2950 2945 2941 2936 2931 2925 2920 2916 2912 2908 2904 2901 2899 2897 2896 2895 2893 2892 2892 2891 2890 2888 2887 2886 2885 2884 2883 2882 2882 2881 2881 2881 2881